Tyrone, NM

10:19 AM MDT on August 31, 2016 (GMT -0600)
Grant County

Weather History for KSVC - October, 2012

Change the Weather History Date:

Tuesday, October 9, 2012

  Actual Average (KDMN) Record (KDMN)
Temperature  
Mean Temperature 63 °F 64 °F  
Max Temperature 78 °F 80 °F 90 °F (1956)
Min Temperature 48 °F 49 °F 33 °F (1982)
Degree Days  
Heating Degree Days 2    
Growing Degree Days 13 (Base 50)    
Moisture  
Dew Point 28 °F    
Average Humidity 27    
Maximum Humidity 50    
Minimum Humidity 14    
Precipitation  
Precipitation 0.00 in 0.05 in 0.76 in (2006)
Month to date precipitation 0.35  
Year to date precipitation 9.24  
Sea Level Pressure  
Sea Level Pressure 30.15 in    
Wind  
Wind Speed 10 mph (NW)    
Max Wind Speed 14 mph    
Max Gust Speed 25 mph    
Visibility 10 miles    
Events      
T = Trace of Precipitation, MM = Missing Value Source: NWS Daily Summary

Daily Weather History Graph

Daily Weather History Graph

Search for Another Location

Airport or City:

Trip Planner

Search our weather history database for the weather conditions in past years. The results will help you decide how hot, cold, wet, or windy it might be!

Date:

Astronomy

Oct. 09, 2012 Rise Set
Actual Time 7:12 AM MDT 6:46 PM MDT
Civil Twilight 6:47 AM MDT 7:10 PM MDT
Nautical Twilight 6:19 AM MDT 7:39 PM MDT
Astronomical Twilight 5:50 AM MDT 8:07 PM MDT
Moon 1:11 AM MDT (10/9) 2:58 PM MDT (10/9)
Length of Visible Light 12h 23m
Length of Day
11h 33m
Last Quarter, 36% of the Moon is Illuminated
Oct 9
Last Quarter
Oct 15
New
Oct 21
First Quarter
Oct 29
Full
Nov 6
Last Quarter

Hourly Weather History & Observations

Time (MDT) Temp. Dew Point Humidity Pressure Visibility Wind Dir Wind Speed Gust Speed Precip Events Conditions
12:15 AM 55.4 °F 28.4 °F 36% 30.13 in 10.0 mi NNW 11.5 mph - N/A   Clear
12:55 AM 55.4 °F 28.4 °F 36% 30.13 in 10.0 mi NNW 11.5 mph - N/A   Clear
1:15 AM 55.4 °F 28.4 °F 36% 30.14 in 10.0 mi NW 9.2 mph - N/A   Clear
1:55 AM 53.6 °F 28.4 °F 38% 30.14 in 10.0 mi NNW 10.4 mph - N/A   Clear
2:35 AM 55.4 °F 28.4 °F 36% 30.15 in 10.0 mi NNW 11.5 mph - N/A   Clear
3:15 AM 50.0 °F 28.4 °F 43% 30.14 in 10.0 mi NNW 9.2 mph - N/A   Clear
3:35 AM 50.0 °F 28.4 °F 43% 30.14 in 10.0 mi NW 8.1 mph - N/A   Clear
3:55 AM 48.2 °F 28.4 °F 46% 30.14 in 10.0 mi NW 10.4 mph - N/A   Clear
5:15 AM 50.0 °F 28.4 °F 43% 30.15 in 10.0 mi North - - N/A   Clear
5:55 AM 48.2 °F 30.2 °F 50% 30.15 in 10.0 mi NNW 10.4 mph - N/A   Clear
6:15 AM 48.2 °F 30.2 °F 50% 30.16 in 10.0 mi NNW 10.4 mph - N/A   Clear
7:35 AM 53.6 °F 32.0 °F 44% 30.17 in 10.0 mi NNW 10.4 mph - N/A   Clear
8:15 AM 59.0 °F 32.0 °F 36% 30.18 in 10.0 mi NW 8.1 mph - N/A   Clear
8:35 AM 62.6 °F 32.0 °F 32% 30.19 in 10.0 mi NW 6.9 mph - N/A   Clear
8:55 AM 64.4 °F 32.0 °F 30% 30.20 in 10.0 mi NW 8.1 mph - N/A   Clear
9:15 AM 66.2 °F 32.0 °F 28% 30.20 in 10.0 mi NW 9.2 mph - N/A   Clear
9:35 AM 66.2 °F 32.0 °F 28% 30.20 in 10.0 mi NW 10.4 mph - N/A   Clear
9:55 AM 68.0 °F 32.0 °F 26% 30.20 in 10.0 mi WNW 9.2 mph - N/A   Clear
10:15 AM 71.6 °F 33.8 °F 25% 30.20 in 10.0 mi WNW 9.2 mph - N/A   Clear
10:35 AM 71.6 °F 35.6 °F 27% 30.20 in 10.0 mi WNW 12.7 mph - N/A   Clear
10:55 AM 73.4 °F 33.8 °F 23% 30.20 in 10.0 mi WNW 12.7 mph 19.6 mph N/A   Clear
11:15 AM 73.4 °F 33.8 °F 23% 30.19 in 10.0 mi WNW 13.8 mph 19.6 mph N/A   Clear
11:35 AM 73.4 °F 33.8 °F 23% 30.19 in 10.0 mi NNW 11.5 mph 17.3 mph N/A   Clear
11:55 AM 73.4 °F 33.8 °F 23% 30.19 in 10.0 mi WNW 5.8 mph - N/A   Clear
12:15 PM 75.2 °F 32.0 °F 21% 30.18 in 10.0 mi West 10.4 mph - N/A   Clear
12:35 PM 73.4 °F 32.0 °F 22% 30.17 in 10.0 mi NW 6.9 mph - N/A   Clear
12:55 PM 75.2 °F 32.0 °F 21% 30.16 in 10.0 mi NW 5.8 mph - N/A   Clear
1:15 PM 75.2 °F 32.0 °F 21% 30.15 in 10.0 mi South 3.5 mph - N/A   Clear
1:35 PM 77.0 °F 32.0 °F 19% 30.14 in 10.0 mi West 8.1 mph 16.1 mph N/A   Clear
1:55 PM 77.0 °F 32.0 °F 19% 30.12 in 10.0 mi NW 8.1 mph - N/A   Clear
2:15 PM 77.0 °F 28.4 °F 17% 30.11 in 10.0 mi WNW 11.5 mph 18.4 mph N/A   Clear
2:35 PM 77.0 °F 28.4 °F 17% 30.11 in 10.0 mi WNW 9.2 mph - N/A   Clear
2:55 PM 78.8 °F 28.4 °F 16% 30.10 in 10.0 mi West 12.7 mph - N/A   Clear
3:15 PM 77.0 °F 26.6 °F 16% 30.10 in 10.0 mi WNW 10.4 mph - N/A   Clear
3:35 PM 77.0 °F 26.6 °F 16% 30.10 in 10.0 mi West 8.1 mph - N/A   Clear
3:55 PM 77.0 °F 26.6 °F 16% 30.10 in 10.0 mi WNW 8.1 mph - N/A   Clear
4:15 PM 78.8 °F 28.4 °F 16% 30.10 in 10.0 mi WNW 12.7 mph 16.1 mph N/A   Clear
4:35 PM 78.8 °F 26.6 °F 15% 30.09 in 10.0 mi WNW 10.4 mph 19.6 mph N/A   Clear
4:55 PM 78.8 °F 26.6 °F 15% 30.10 in 10.0 mi West 11.5 mph 17.3 mph N/A   Clear
5:15 PM 77.0 °F 24.8 °F 14% 30.10 in 10.0 mi West 11.5 mph 25.3 mph N/A   Clear
5:35 PM 77.0 °F 24.8 °F 14% 30.10 in 10.0 mi WSW 11.5 mph 18.4 mph N/A   Clear
5:55 PM 77.0 °F 26.6 °F 16% 30.10 in 10.0 mi West 10.4 mph - N/A   Clear
6:15 PM 75.2 °F 24.8 °F 15% 30.10 in 10.0 mi West 12.7 mph - N/A   Clear
6:35 PM 73.4 °F 23.0 °F 15% 30.11 in 10.0 mi West 10.4 mph 16.1 mph N/A   Clear
6:55 PM 71.6 °F 24.8 °F 17% 30.11 in 10.0 mi West 9.2 mph - N/A   Clear
7:15 PM 71.6 °F 24.8 °F 17% 30.11 in 10.0 mi West 9.2 mph - N/A   Clear
7:35 PM 68.0 °F 24.8 °F 20% 30.12 in 10.0 mi West 6.9 mph - N/A   Clear
7:55 PM 62.6 °F 24.8 °F 24% 30.13 in 10.0 mi WNW 6.9 mph - N/A   Clear
8:15 PM 59.0 °F 24.8 °F 27% 30.14 in 10.0 mi NW 6.9 mph - N/A   Clear
8:35 PM 55.4 °F 24.8 °F 31% 30.15 in 10.0 mi NW 9.2 mph - N/A   Clear
8:55 PM 57.2 °F 24.8 °F 29% 30.15 in 10.0 mi NNW 11.5 mph - N/A   Clear
9:15 PM 57.2 °F 26.6 °F 31% 30.15 in 10.0 mi North 10.4 mph - N/A   Clear
9:35 PM 59.0 °F 26.6 °F 29% 30.15 in 10.0 mi NNW 10.4 mph - N/A   Clear
9:55 PM 57.2 °F 26.6 °F 31% 30.16 in 10.0 mi North 9.2 mph - N/A   Clear
10:15 PM 57.2 °F 24.8 °F 29% 30.16 in 10.0 mi North 9.2 mph - N/A   Clear
10:35 PM 57.2 °F 24.8 °F 29% 30.16 in 10.0 mi North 10.4 mph - N/A   Clear
10:55 PM 57.2 °F 24.8 °F 29% 30.17 in 10.0 mi North 10.4 mph - N/A   Clear
11:15 PM 57.2 °F 23.0 °F 27% 30.16 in 10.0 mi North 10.4 mph - N/A   Clear
11:35 PM 55.4 °F 23.0 °F 29% 30.17 in 10.0 mi North 10.4 mph - N/A   Clear
11:55 PM 55.4 °F 23.0 °F 29% 30.17 in 10.0 mi North 9.2 mph - N/A   Clear